Powrót do katalogu

THORAD AGENA D DEB

AktywnyLEO
NORAD 42511·DEBRIS·🇺🇸 United States

Wystrzelony Apr 8, 1970 z Vandenberg Space Force Base

Loading…

Następne Przeloty (najbliższe 24 godziny)

TLE

ŚwieżeSource: Space-Track

Epoka: Sep 14, 2026, 03:21 UTC

1 42511U 70025RR  26257.14025621  .00000191  00000-0  72864-3 0  9991
2 42511 100.1651 144.1850 0454093 175.7678 184.7458 12.72842412594297

Śledź THORAD AGENA D DEB w czasie rzeczywistym z AllMySat

Download on the App Store